Location: Newark
(40.7119°N, 74.0097°W)
Time: 12:35:43
(UTC+00:00)

LightSail 2 - Visible Passes

Search period start: 06 April 2020 00:00
Search period end: 16 April 2020 00:00
Orbit: 694 x 724 km, 24.0° (Epoch: 05 April)

Date Brightness Start Highest point End Pass type
(mag) Time Alt. Az. Time Alt. Az. Time Alt. Az.
08 Apr 7.4 09:32:56 10° S 09:33:48 10° S 09:34:39 10° SSE visible
10 Apr 7.2 09:18:45 10° SSW 09:20:14 11° S 09:21:44 10° SSE visible
11 Apr 7.4 08:22:22 10° SSE 08:22:22 10° SSE 08:22:25 10° SSE visible
12 Apr 7.2 09:05:33 10° SSW 09:06:40 11° S 09:07:58 10° SSE visible
